Weather in Sodom

Russia / Kirov Oblast     58°11′30″N   47°06′55″E
temp.,
°C
wind,
m/s
gust,
m/s
humid.,
%
clouds,
%
prec.,
mm/h
press.,
hPa
HPBL,
m
13 april, tue
tue1300:00+4sse3797100 0.0 1038349
03:00+4se2998100 0.0 1036374
06:00+4se39100100 0.0 1035328
09:00+4sse38100100 0.0 1034289
12:00+7sse39100100 0.0 1032314
15:00+9s4894100 0.0 1031383
18:00+9s389494 0.0 1030355
21:00+6s3119960 0.0 1030215
14 april, wed
wed1400:00+5s2109770 0.0 1029198
03:00+3s279374 0.0 1028101
06:00+4s2792100 0.0 1028128
09:00+11s366990 0.0 1027272
12:00+15ssw465368 0.0 1026683
15:00+16ssw465329 0.0 1024970
18:00+12s27735 0.0 1023135
21:00+8s248444 0.0 102357
15 april, thu
thu1500:00+7ssw228915 0.0 102226
03:00+6ssw22905 0.0 102122
06:00+7ssw22910 0.0 102141
09:00+13wsw136785 0.0 1020343
12:00+17wsw12516 0.0 1019964
15:00+17nw224379 0.0 10191692
18:00+9nne51083100 0.0 1020434
21:00
16 april, fri
fri1600:00+5ne41086100 0.0 1023546
03:00+4ne4108572 0.0 1023554
06:00+4ne4982100 0.0 1024529
09:00+6ne57552 0.0 1024845
12:00+9ne45396 0.0 10251266
15:00+10ne453632 0.0 10251511
18:00+8ne364451 0.0 1025258
21:00+4nne310612 0.0 1026258
17 april, sat
sat1700:00+2nne27735 0.0 1027127
03:00+1n25775 0.0 102889
06:00+1n39690 0.0 1028287
09:00+6n466120 0.0 10281061
12:00+8nne464068 0.0 10281726
15:00+8n463596 0.0 10282112
18:00+7n374634 0.0 1028675
21:00+2n236689 0.0 102951